Wind_Speed
18 19 20 21 22 22 23 25 26 28 29 30 31 32 34 35 35 36 36 36 37 36 35 35 34 33 32 32 31 29 28 28 27 27 28 28 28 29 30 30 30 29 29
15 16 18 20 21 23 24 25 26 28 29 31 32 34 35 35 35 35 36 36 37 36 36 36 35 35 34 33 32 30 29 28 29 28 27 27 28 29 30 30 30 30 29
13 15 17 19 20 22 24 25 26 28 30 31 33 34 35 35 36 36 37 37 38 38 38 38 37 36 36 35 33 32 30 29 29 28 28 26 27 29 30 31 31 32 30
12 14 16 18 19 21 23 25 27 29 31 32 34 35 36 37 38 38 38 38 39 39 39 39 39 38 37 37 35 34 33 31 30 29 29 29 29 29 31 32 32 32 32
12 13 15 17 19 21 23 25 27 29 31 33 35 36 38 39 39 40 40 40 40 39 39 39 39 39 38 38 37 36 35 34 32 31 31 31 29 30 31 33 34 33 33
11 14 16 18 20 21 24 26 27 29 31 33 35 37 38 39 39 40 40 40 40 40 39 39 39 39 38 38 38 37 37 36 35 34 33 33 33 32 32 35 36 35 34
13 15 17 19 21 23 25 28 29 31 33 35 37 38 38 39 39 40 40 41 41 40 40 39 39 38 38 38 38 38 37 37 37 37 36 36 35 34 35 36 37 37 36
16 18 20 22 25 27 29 30 32 34 35 37 38 38 38 39 39 40 40 40 41 40 40 39 39 39 39 39 38 38 38 38 38 38 38 38 38 36 37 37 37 38 38
20 22 24 26 28 30 32 34 36 37 38 39 39 39 39 40 40 40 40 40 40 40 40 40 40 40 40 40 40 40 39 39 39 39 40 39 39 39 39 39 39 39 39
24 26 27 30 32 34 36 39 40 41 41 41 41 41 40 40 40 40 40 41 41 41 41 41 41 41 40 40 40 40 40 41 41 41 41 41 41 41 42 41 41 40 40
27 28 30 32 35 37 40 42 42 43 42 42 42 42 41 41 41 41 42 42 42 42 43 43 42 42 42 42 41 41 42 42 42 43 43 43 43 44 44 44 43 43 42
28 30 32 35 37 40 41 42 43 42 42 42 42 42 42 42 42 42 43 43 43 43 43 44 43 43 44 44 44 45 45 45 45 45 45 45 46 46 46 46 46 46 46
30 32 35 37 39 41 42 42 42 42 42 42 42 42 42 42 43 43 43 44 44 44 44 44 44 44 44 45 46 46 47 47 48 48 48 48 49 49 49 49 49 49 49
32 34 36 39 41 42 42 43 43 43 43 43 42 42 42 42 43 43 44 44 45 45 44 44 44 45 45 46 47 48 49 50 50 50 51 50 51 52 52 52 51 52 51
34 36 39 41 43 43 43 43 43 43 43 43 42 42 42 43 44 44 44 45 45 44 44 44 45 45 46 47 48 49 49 50 51 52 53 53 53 54 54 54 54 54 54
35 38 41 43 43 43 43 43 43 43 43 43 43 42 43 44 44 44 45 44 44 44 44 43 43 44 45 46 46 47 48 49 50 51 53 54 55 56 57 57 56 55 55
37 40 42 43 43 44 44 44 44 44 44 43 43 43 44 44 45 44 44 44 43 42 42 42 41 42 43 43 44 44 45 46 47 49 51 53 55 56 58 58 58 57 56
38 41 43 43 44 44 44 44 44 44 44 44 44 44 45 44 44 44 44 43 41 40 40 40 40 40 40 40 40 41 42 43 44 46 48 50 52 55 56 58 59 59 59
40 42 43 44 44 44 44 44 44 44 44 44 44 45 44 43 43 43 43 41 39 38 38 37 37 36 36 37 36 37 38 38 40 42 43 45 48 51 54 56 57 59 60
40 42 44 44 44 43 43 44 44 44 44 44 44 44 43 43 42 42 41 38 37 36 35 35 34 34 33 33 32 32 32 33 34 36 38 41 43 46 49 52 54 55 57
41 43 43 43 43 43 44 44 44 44 44 44 44 43 43 42 41 41 39 37 36 35 34 33 32 31 30 29 28 27 26 27 29 31 34 36 40 43 45 48 50 50 53
41 42 42 43 43 43 44 44 44 44 44 43 43 43 43 41 40 39 38 36 35 34 33 32 31 29 28 26 24 22 21 22 24 26 29 32 35 38 41 43 45 47 48
40 41 42 42 43 44 44 44 44 44 43 43 43 43 42 41 40 38 37 36 35 34 32 30 28 27 25 22 19 18 17 17 19 21 23 27 31 33 37 39 41 41 43
40 41 41 42 43 44 45 45 45 44 43 43 42 42 41 40 40 38 37 36 35 33 31 29 26 24 22 19 16 15 14 14 15 18 21 24 28 30 33 35 37 38 39
40 40 41 42 43 44 45 45 45 44 43 43 42 41 40 40 39 38 37 36 34 33 30 27 25 22 19 16 13 11 10 11 13 15 18 22 25 28 30 32 34 36 38
39 40 41 42 44 45 45 45 45 44 43 42 41 40 39 39 38 37 36 36 34 31 29 27 24 20 17 14 12 8 6 7 10 13 16 20 23 25 28 30 31 33 34
Wind_Direction
280 285 288 291 293 293 293 294 295 294 294 294 294 294 293 293 293 293 293 293 293 291 289 288 287 286 285 286 285 281 277 272 267 260 256 252 246 243 239 237 232 231 230
280 287 291 293 294 294 295 295 296 297 297 295 295 295 295 294 294 293 292 292 291 290 288 287 286 285 283 282 281 279 277 273 267 261 257 250 244 243 238 234 231 229 229
283 289 293 295 297 298 299 298 298 298 298 297 297 297 296 296 295 293 291 290 289 288 287 286 284 282 281 279 278 276 274 272 265 260 257 252 247 244 237 233 230 228 227
288 294 298 300 302 302 301 300 300 299 299 298 298 298 297 296 295 294 292 290 289 287 286 284 282 280 278 276 275 273 270 268 264 259 257 255 252 243 235 230 228 228 227
299 303 305 307 307 305 303 302 301 300 298 297 297 296 296 295 294 293 292 290 289 287 285 283 281 278 276 274 272 270 268 264 262 259 257 254 250 244 238 233 228 226 225
310 312 312 311 309 307 306 305 303 301 300 299 298 297 296 295 294 294 293 291 289 288 286 283 280 278 276 273 270 268 265 262 258 256 253 251 248 247 241 233 227 225 225
322 319 318 316 315 313 313 311 309 306 304 303 301 300 298 296 295 294 293 291 290 288 286 284 280 278 275 273 270 267 263 260 256 253 250 247 244 244 241 234 228 225 225
329 328 326 324 322 321 319 317 315 312 309 307 305 303 301 299 297 295 294 292 290 289 286 283 281 277 275 272 269 266 263 260 256 251 248 246 244 242 239 234 230 227 225
337 335 331 328 326 323 322 320 318 316 314 311 308 306 304 302 300 298 295 293 292 289 287 284 281 278 275 272 269 266 262 259 256 252 248 245 243 241 237 234 231 229 226
339 335 331 329 327 326 324 323 321 319 317 314 312 309 306 304 302 300 298 295 293 290 288 285 282 279 276 272 269 266 262 259 256 253 250 247 243 239 236 233 230 229 227
337 334 331 329 328 326 325 324 322 319 317 315 312 309 307 305 303 301 299 297 295 292 289 286 283 280 276 272 268 265 263 259 256 253 250 247 244 239 236 233 230 229 227
334 332 331 329 328 326 324 322 320 319 317 315 313 311 308 306 304 302 300 298 296 293 290 286 283 281 277 274 270 266 262 259 256 253 250 247 244 240 236 233 231 229 227
333 332 330 329 327 325 323 322 321 320 318 317 315 313 311 309 307 305 302 300 298 295 291 287 284 281 278 275 271 268 263 259 256 253 250 247 244 241 238 235 232 229 228
330 329 328 327 326 326 325 324 323 322 320 318 316 315 313 311 309 307 304 302 299 296 292 289 285 282 279 276 273 269 265 260 256 252 249 247 244 241 238 236 233 231 229
327 326 326 327 328 327 327 326 325 323 322 321 319 317 316 314 312 310 308 305 302 297 293 290 287 284 281 277 274 271 267 262 257 252 248 245 243 240 238 236 234 232 230
326 327 328 328 329 328 327 327 326 326 325 323 322 320 318 317 315 313 311 308 304 300 296 293 290 286 283 280 276 272 267 262 256 251 246 243 241 239 237 235 234 233 231
326 327 328 329 329 329 329 329 329 328 327 326 324 323 321 319 318 316 314 311 307 303 299 296 293 290 287 283 278 273 267 262 256 250 246 242 239 237 236 235 234 232 231
326 328 329 330 330 330 330 331 330 330 329 327 326 325 324 322 321 320 318 315 311 307 303 300 297 294 291 286 281 274 268 263 256 249 244 241 239 236 234 234 232 231 230
327 329 330 331 331 331 332 332 332 331 330 329 328 327 327 325 324 323 321 318 315 312 309 305 302 299 295 290 284 277 270 263 255 248 243 240 237 235 233 232 231 230 229
328 329 330 331 332 333 333 333 333 333 332 331 330 330 330 328 327 326 325 323 320 317 314 310 307 304 300 294 287 279 271 262 254 247 241 237 234 232 231 229 228 228 227
328 330 331 332 333 334 334 334 334 334 333 333 333 332 332 331 331 330 330 327 325 322 319 316 312 310 305 298 291 282 272 259 251 243 236 233 231 229 227 226 224 224 225
329 330 331 332 334 335 335 336 336 335 335 335 335 334 334 334 333 333 333 331 329 326 323 320 317 314 311 302 294 285 273 260 250 241 233 229 225 223 221 220 220 221 222
329 331 332 334 335 336 336 337 337 337 336 336 337 337 336 336 336 336 335 334 333 331 329 326 323 320 317 309 299 288 276 261 247 236 228 222 218 218 217 217 215 217 218
330 331 333 335 336 337 337 337 338 337 337 338 338 338 338 338 338 337 336 336 336 335 333 330 328 326 323 315 305 291 274 258 243 230 222 217 213 211 211 212 213 214 215
330 332 333 334 336 337 338 338 338 338 338 338 339 340 340 341 340 340 339 339 338 337 336 335 333 331 330 326 316 299 274 252 237 225 216 211 209 207 207 208 210 212 212
330 332 334 335 336 337 337 338 339 339 339 339 340 341 341 342 343 343 343 343 342 341 341 340 340 339 338 335 328 311 283 251 225 213 208 204 204 205 206 207 207 208 209
Height
5866 5865 5863 5862 5861 5859 5858 5857 5855 5853 5851 5848 5846 5843 5841 5838 5836 5833 5830 5827 5825 5823 5821 5820 5818 5817 5815 5814 5812 5811 5811 5810 5810 5811 5812 5813 5815 5818 5821 5824 5828 5831 5834
5863 5861 5860 5859 5857 5855 5853 5851 5849 5846 5844 5841 5839 5836 5833 5830 5827 5825 5822 5819 5817 5814 5812 5811 5809 5808 5807 5805 5804 5803 5803 5803 5803 5804 5804 5806 5809 5811 5813 5817 5821 5825 5828
5860 5858 5857 5855 5853 5851 5848 5846 5843 5840 5837 5834 5831 5828 5824 5821 5818 5816 5813 5810 5808 5805 5803 5801 5800 5799 5798 5797 5796 5796 5796 5796 5795 5796 5797 5799 5801 5803 5806 5810 5814 5817 5821
5857 5856 5854 5852 5849 5847 5844 5841 5837 5834 5830 5827 5823 5820 5816 5812 5809 5806 5803 5800 5798 5795 5793 5791 5790 5789 5788 5787 5787 5787 5787 5787 5788 5788 5790 5791 5793 5796 5799 5802 5806 5810 5814
5854 5852 5850 5848 5845 5842 5839 5835 5832 5828 5824 5820 5816 5812 5808 5803 5800 5796 5793 5790 5787 5785 5782 5780 5778 5777 5777 5776 5776 5776 5777 5778 5779 5780 5781 5783 5785 5787 5791 5795 5798 5802 5807
5850 5849 5846 5844 5841 5838 5834 5830 5826 5821 5817 5812 5808 5803 5799 5794 5790 5786 5782 5779 5775 5773 5771 5769 5767 5766 5765 5765 5765 5765 5766 5767 5769 5771 5772 5774 5776 5779 5782 5787 5790 5794 5799
5847 5844 5842 5838 5835 5831 5827 5823 5818 5813 5809 5804 5799 5793 5789 5784 5779 5775 5771 5767 5764 5761 5759 5757 5755 5754 5753 5753 5753 5754 5755 5756 5758 5760 5762 5765 5767 5770 5773 5777 5781 5786 5790
5842 5839 5835 5832 5828 5824 5819 5815 5810 5805 5799 5794 5789 5783 5778 5773 5768 5764 5760 5756 5752 5749 5747 5745 5743 5742 5741 5741 5741 5742 5743 5744 5746 5748 5751 5754 5757 5760 5764 5768 5772 5777 5781
5836 5833 5829 5825 5821 5817 5812 5806 5801 5795 5790 5784 5778 5773 5767 5762 5757 5753 5748 5744 5741 5738 5735 5732 5731 5729 5728 5728 5728 5729 5730 5731 5733 5736 5739 5742 5746 5750 5753 5757 5762 5768 5772
5831 5827 5823 5819 5814 5809 5803 5798 5791 5785 5779 5773 5768 5762 5757 5751 5746 5742 5737 5733 5729 5725 5722 5720 5718 5716 5715 5715 5715 5715 5717 5718 5720 5722 5726 5730 5734 5738 5742 5747 5752 5757 5762
5826 5822 5818 5813 5808 5802 5796 5789 5783 5776 5770 5764 5758 5752 5746 5741 5736 5731 5726 5721 5717 5713 5709 5706 5704 5702 5701 5701 5701 5701 5702 5704 5707 5709 5712 5716 5720 5725 5730 5735 5740 5746 5751
5822 5817 5813 5807 5802 5796 5789 5782 5775 5768 5762 5755 5749 5742 5736 5731 5725 5719 5714 5709 5704 5699 5695 5692 5689 5687 5686 5685 5685 5686 5687 5689 5692 5694 5698 5702 5706 5711 5716 5722 5728 5734 5740
5817 5812 5807 5802 5796 5789 5782 5775 5767 5760 5753 5746 5739 5733 5726 5720 5713 5707 5701 5696 5691 5686 5681 5677 5674 5672 5670 5668 5668 5668 5670 5672 5675 5678 5682 5687 5691 5696 5702 5708 5714 5720 5727
5812 5808 5802 5796 5790 5782 5774 5767 5759 5752 5744 5737 5730 5723 5716 5709 5702 5696 5689 5683 5677 5671 5667 5662 5659 5656 5653 5652 5651 5651 5652 5654 5657 5660 5665 5670 5675 5681 5686 5693 5699 5706 5713
5808 5803 5796 5790 5782 5774 5767 5759 5751 5743 5736 5728 5720 5713 5706 5698 5691 5684 5677 5670 5663 5657 5652 5647 5643 5639 5636 5634 5633 5632 5633 5634 5637 5641 5645 5651 5657 5663 5670 5677 5684 5691 5699
5803 5797 5790 5783 5775 5767 5759 5751 5743 5735 5727 5719 5711 5703 5696 5688 5680 5672 5664 5657 5650 5643 5637 5632 5627 5623 5619 5617 5615 5614 5614 5615 5618 5621 5626 5631 5638 5645 5653 5660 5668 5676 5684
5797 5791 5783 5776 5768 5759 5751 5743 5735 5726 5718 5710 5702 5694 5686 5677 5669 5660 5652 5644 5636 5629 5623 5617 5612 5608 5603 5600 5597 5595 5595 5597 5599 5602 5607 5613 5620 5626 5634 5642 5651 5659 5668
5791 5784 5776 5768 5760 5752 5744 5735 5727 5718 5710 5701 5693 5685 5676 5667 5659 5650 5641 5632 5624 5617 5611 5604 5599 5594 5589 5585 5581 5579 5579 5579 5581 5584 5589 5595 5601 5608 5616 5624 5633 5642 5652
5784 5777 5769 5761 5753 5745 5736 5728 5719 5711 5702 5693 5685 5676 5667 5658 5649 5640 5631 5622 5614 5606 5599 5593 5586 5581 5576 5571 5567 5564 5563 5563 5565 5568 5573 5578 5585 5592 5600 5608 5617 5627 5636
5778 5770 5763 5755 5747 5738 5730 5721 5712 5703 5695 5686 5677 5668 5658 5649 5640 5631 5621 5612 5604 5597 5589 5582 5576 5570 5564 5558 5554 5551 5550 5550 5551 5554 5559 5564 5570 5577 5584 5592 5601 5611 5620
5772 5764 5756 5748 5740 5732 5723 5714 5705 5696 5687 5678 5669 5660 5650 5641 5632 5623 5613 5604 5596 5588 5581 5573 5566 5560 5554 5548 5543 5540 5539 5539 5540 5543 5547 5551 5557 5564 5571 5579 5588 5597 5606
5766 5758 5750 5742 5733 5725 5716 5708 5699 5690 5680 5671 5662 5652 5643 5633 5624 5615 5606 5597 5589 5580 5572 5565 5558 5551 5545 5539 5535 5532 5530 5530 5531 5533 5537 5541 5546 5553 5561 5569 5577 5585 5593
5759 5752 5744 5735 5727 5719 5710 5701 5692 5683 5674 5664 5655 5645 5636 5626 5617 5609 5600 5591 5582 5573 5565 5558 5551 5544 5538 5532 5528 5525 5523 5523 5524 5526 5529 5534 5539 5545 5552 5560 5567 5575 5583
5752 5745 5737 5729 5721 5713 5704 5695 5686 5677 5667 5658 5649 5640 5630 5621 5612 5603 5594 5585 5576 5568 5559 5552 5545 5539 5533 5528 5524 5521 5519 5518 5519 5521 5524 5528 5533 5539 5546 5553 5560 5568 5575
5746 5739 5731 5723 5715 5707 5698 5689 5680 5671 5662 5653 5643 5634 5625 5616 5607 5598 5588 5580 5571 5563 5555 5548 5541 5535 5529 5524 5520 5517 5516 5515 5516 5518 5520 5524 5529 5535 5541 5547 5554 5561 5568
5740 5732 5725 5717 5709 5701 5692 5683 5674 5666 5657 5648 5639 5630 5620 5611 5602 5594 5584 5575 5567 5559 5551 5544 5538 5532 5527 5522 5519 5516 5514 5513 5514 5516 5518 5522 5527 5532 5537 5543 5549 5555 5562